Time,TemperatureF,DewpointF,PressureIn,WindDirection,WindDirectionDegrees,WindSpeedMPH,WindSpeedGustMPH,Humidity,HourlyPrecipIn,Conditions,Clouds,dailyrainin,SoftwareType,DateUTC
2013-03-25 00:04:00,48.7,42.4,29.98,SSE,158,3.8,5.8,79,0.00,,,0.00,WUHU216HW,2013-03-25 07:04:00,
2013-03-25 00:09:00,48.7,42.4,29.98,SE,135,4.0,5.8,79,0.00,,,0.00,WUHU216HW,2013-03-25 07:09:00,
2013-03-25 00:14:00,48.5,42.2,29.98,SSE,158,2.0,5.8,79,0.00,,,0.00,WUHU216HW,2013-03-25 07:14:00,
2013-03-25 00:19:00,48.5,42.2,29.98,SSE,158,0.0,5.8,79,0.00,,,0.00,WUHU216HW,2013-03-25 07:19:00,
2013-03-25 00:24:00,48.5,42.2,29.98,SSE,158,0.0,4.9,79,0.00,,,0.00,WUHU216HW,2013-03-25 07:24:00,
2013-03-25 00:29:00,48.5,42.2,29.98,SE,135,2.2,3.8,79,0.00,,,0.00,WUHU216HW,2013-03-25 07:29:00,
2013-03-25 00:34:00,48.5,42.2,29.98,SSE,158,2.9,3.1,79,0.00,,,0.00,WUHU216HW,2013-03-25 07:34:00,
2013-03-25 00:39:00,48.5,42.2,29.98,SE,135,3.8,3.8,79,0.00,,,0.00,WUHU216HW,2013-03-25 07:39:00,
2013-03-25 00:44:00,48.5,42.2,29.98,WSW,248,3.1,3.8,79,0.00,,,0.00,WUHU216HW,2013-03-25 07:44:00,
2013-03-25 00:49:00,48.3,42.0,29.99,SSW,203,3.3,3.8,79,0.00,,,0.00,WUHU216HW,2013-03-25 07:49:00,
2013-03-25 00:54:00,48.3,42.0,29.98,SSE,158,2.6,5.1,79,0.00,,,0.00,WUHU216HW,2013-03-25 07:54:00,
2013-03-25 00:59:00,48.3,42.0,29.98,South,180,6.4,6.4,79,0.00,,,0.00,WUHU216HW,2013-03-25 07:59:00,
2013-03-25 01:04:00,48.0,41.7,29.98,SSE,158,2.2,6.4,79,0.00,,,0.00,WUHU216HW,2013-03-25 08:04:00,
2013-03-25 01:09:00,48.0,41.7,29.98,South,180,4.0,4.2,79,0.00,,,0.00,WUHU216HW,2013-03-25 08:09:00,
2013-03-25 01:14:00,48.0,42.0,29.98,South,180,2.9,4.0,80,0.00,,,0.00,WUHU216HW,2013-03-25 08:14:00,
2013-03-25 01:19:00,48.0,42.0,29.98,SE,135,2.2,5.5,80,0.00,,,0.00,WUHU216HW,2013-03-25 08:19:00,
2013-03-25 01:24:00,48.0,42.0,29.98,SSE,158,4.4,5.5,80,0.00,,,0.00,WUHU216HW,2013-03-25 08:24:00,
2013-03-25 01:29:00,48.0,42.0,29.98,South,180,3.3,4.4,80,0.00,,,0.00,WUHU216HW,2013-03-25 08:29:00,
2013-03-25 01:35:00,47.8,41.9,29.98,South,180,1.1,6.2,80,0.00,,,0.00,WUHU216HW,2013-03-25 08:35:00,
2013-03-25 01:40:00,47.8,42.2,29.98,SE,135,3.5,6.2,81,0.00,,,0.00,WUHU216HW,2013-03-25 08:40:00,
2013-03-25 01:45:00,47.8,42.2,29.98,SSE,158,0.4,4.9,81,0.00,,,0.00,WUHU216HW,2013-03-25 08:45:00,
2013-03-25 01:50:00,47.6,41.7,29.98,SE,135,3.1,4.4,80,0.00,,,0.00,WUHU216HW,2013-03-25 08:50:00,
2013-03-25 01:55:00,47.6,41.6,29.97,SSE,158,2.9,3.1,80,0.00,,,0.00,WUHU216HW,2013-03-25 08:55:00,
2013-03-25 02:00:00,47.4,41.6,29.98,South,180,2.2,2.9,80,0.00,,,0.00,WUHU216HW,2013-03-25 09:00:00,
2013-03-25 02:05:00,47.4,41.6,29.98,SE,135,1.1,4.2,80,0.00,,,0.00,WUHU216HW,2013-03-25 09:05:00,
2013-03-25 02:10:00,47.4,41.6,29.97,SSE,158,2.4,4.2,80,0.00,,,0.00,WUHU216HW,2013-03-25 09:10:00,
2013-03-25 02:15:00,47.3,41.4,29.97,SE,135,2.2,3.1,80,0.00,,,0.00,WUHU216HW,2013-03-25 09:15:00,
2013-03-25 02:20:00,47.3,41.7,29.97,SSE,158,2.0,3.1,81,0.00,,,0.00,WUHU216HW,2013-03-25 09:20:00,
2013-03-25 02:25:00,47.3,41.7,29.97,SSE,158,5.5,6.0,81,0.00,,,0.00,WUHU216HW,2013-03-25 09:25:00,
2013-03-25 02:30:00,47.1,41.5,29.97,SSE,158,4.4,6.0,81,0.00,,,0.00,WUHU216HW,2013-03-25 09:30:00,
2013-03-25 02:36:00,47.1,41.5,29.97,South,180,3.3,5.5,81,0.00,,,0.00,WUHU216HW,2013-03-25 09:36:00,
2013-03-25 02:41:00,47.1,41.5,29.97,SSE,158,1.3,4.6,81,0.00,,,0.00,WUHU216HW,2013-03-25 09:41:00,
2013-03-25 02:46:00,46.9,41.4,29.97,SE,135,3.8,4.6,81,0.00,,,0.00,WUHU216HW,2013-03-25 09:46:00,
2013-03-25 02:51:00,46.9,41.4,29.96,SSE,158,3.5,3.8,81,0.00,,,0.00,WUHU216HW,2013-03-25 09:51:00,
2013-03-25 02:56:00,46.9,41.4,29.96,SE,135,4.6,5.5,81,0.00,,,0.00,WUHU216HW,2013-03-25 09:56:00,
2013-03-25 03:01:00,46.9,41.4,29.97,SSE,158,3.5,5.5,81,0.00,,,0.00,WUHU216HW,2013-03-25 10:01:00,
2013-03-25 03:06:00,46.7,41.2,29.97,SSW,203,2.0,6.0,81,0.00,,,0.00,WUHU216HW,2013-03-25 10:06:00,
2013-03-25 03:11:00,46.7,41.2,29.96,South,180,5.5,6.0,81,0.00,,,0.00,WUHU216HW,2013-03-25 10:11:00,
2013-03-25 03:16:00,46.7,41.2,29.96,South,180,2.4,5.5,81,0.00,,,0.00,WUHU216HW,2013-03-25 10:16:00,
2013-03-25 03:21:00,46.7,41.5,29.97,SE,135,2.0,5.1,82,0.00,,,0.00,WUHU216HW,2013-03-25 10:21:00,
2013-03-25 03:26:00,46.7,41.5,29.97,SSE,158,1.7,5.8,82,0.00,,,0.00,WUHU216HW,2013-03-25 10:26:00,
2013-03-25 03:31:00,46.9,41.7,29.97,SSE,158,2.6,5.8,82,0.00,,,0.00,WUHU216HW,2013-03-25 10:31:00,
2013-03-25 03:37:00,46.9,41.7,29.96,SSE,158,2.9,5.1,82,0.00,,,0.00,WUHU216HW,2013-03-25 10:37:00,
2013-03-25 03:42:00,46.9,41.7,29.96,South,180,2.2,4.6,82,0.00,,,0.00,WUHU216HW,2013-03-25 10:42:00,
2013-03-25 03:47:00,46.9,41.7,29.96,WSW,248,2.2,3.8,82,0.00,,,0.00,WUHU216HW,2013-03-25 10:47:00,
2013-03-25 03:52:00,46.9,41.7,29.96,SE,135,3.3,5.5,82,0.00,,,0.00,WUHU216HW,2013-03-25 10:52:00,
2013-03-25 03:57:00,46.9,41.9,29.96,SSE,158,0.0,5.5,82,0.00,,,0.00,WUHU216HW,2013-03-25 10:57:00,
2013-03-25 04:02:00,47.1,41.9,29.96,SSE,158,3.8,6.2,82,0.00,,,0.00,WUHU216HW,2013-03-25 11:02:00,
2013-03-25 04:07:00,47.1,41.9,29.96,SSE,158,3.3,6.2,82,0.00,,,0.00,WUHU216HW,2013-03-25 11:07:00,
2013-03-25 04:12:00,47.1,41.5,29.96,SSE,158,4.6,5.8,81,0.00,,,0.00,WUHU216HW,2013-03-25 11:12:00,
2013-03-25 04:17:00,46.9,41.4,29.96,SSE,158,0.0,5.8,81,0.00,,,0.00,WUHU216HW,2013-03-25 11:17:00,
2013-03-25 04:23:00,46.9,41.4,29.96,South,180,3.1,4.6,81,0.00,,,0.00,WUHU216HW,2013-03-25 11:23:00,
2013-03-25 04:28:00,47.1,41.5,29.96,South,180,0.0,6.4,81,0.00,,,0.00,WUHU216HW,2013-03-25 11:28:00,
2013-03-25 04:33:00,46.9,41.4,29.96,South,180,0.6,6.4,81,0.00,,,0.00,WUHU216HW,2013-03-25 11:33:00,
2013-03-25 04:38:00,46.9,41.4,29.96,SSE,158,2.6,2.6,81,0.00,,,0.00,WUHU216HW,2013-03-25 11:38:00,
2013-03-25 04:43:00,46.9,41.4,29.96,SE,135,4.9,4.9,81,0.00,,,0.00,WUHU216HW,2013-03-25 11:43:00,
2013-03-25 04:48:00,46.9,41.4,29.96,South,180,6.0,6.0,81,0.00,,,0.00,WUHU216HW,2013-03-25 11:48:00,
2013-03-25 04:53:00,46.9,41.4,29.96,SE,135,5.8,6.4,81,0.00,,,0.00,WUHU216HW,2013-03-25 11:53:00,
2013-03-25 04:58:00,46.7,41.2,29.96,SSE,158,1.7,6.4,81,0.00,,,0.00,WUHU216HW,2013-03-25 11:58:00,
2013-03-25 05:03:00,46.7,41.2,29.96,SSE,158,3.1,5.8,81,0.00,,,0.00,WUHU216HW,2013-03-25 12:03:00,
2013-03-25 05:08:00,46.7,41.2,29.96,South,180,1.1,3.5,81,0.00,,,0.00,WUHU216HW,2013-03-25 12:08:00,
2013-03-25 05:13:00,46.5,41.1,29.96,SSE,158,2.0,3.5,81,0.00,,,0.00,WUHU216HW,2013-03-25 12:13:00,
2013-03-25 05:18:00,46.5,41.1,29.96,SE,135,2.9,2.9,81,0.00,,,0.00,WUHU216HW,2013-03-25 12:18:00,
2013-03-25 05:23:00,46.5,41.1,29.96,SE,135,1.3,2.9,81,0.00,,,0.00,WUHU216HW,2013-03-25 12:23:00,
2013-03-25 05:28:00,46.5,41.1,29.96,SSE,158,0.8,1.3,81,0.00,,,0.00,WUHU216HW,2013-03-25 12:28:00,
2013-03-25 05:33:00,46.5,41.1,29.96,SSE,158,0.8,1.3,81,0.00,,,0.00,WUHU216HW,2013-03-25 12:33:00,
2013-03-25 05:38:00,46.5,41.1,29.96,SE,135,2.9,2.9,81,0.00,,,0.00,WUHU216HW,2013-03-25 12:38:00,
2013-03-25 05:43:00,46.5,41.1,29.97,SE,135,2.6,2.9,81,0.00,,,0.00,WUHU216HW,2013-03-25 12:43:00,
2013-03-25 05:48:00,46.5,41.1,29.97,SSE,158,1.7,4.6,81,0.00,,,0.00,WUHU216HW,2013-03-25 12:48:00,
2013-03-25 05:53:00,46.5,41.1,29.97,SE,135,4.0,4.9,81,0.00,,,0.00,WUHU216HW,2013-03-25 12:53:00,
2013-03-25 05:58:00,46.5,41.1,29.97,SE,135,4.4,4.9,81,0.00,,,0.00,WUHU216HW,2013-03-25 12:58:00,
2013-03-25 06:04:00,46.5,41.1,29.97,SSE,158,2.2,4.4,81,0.00,,,0.00,WUHU216HW,2013-03-25 13:04:00,
2013-03-25 06:09:00,46.5,41.1,29.97,South,180,4.0,4.0,81,0.00,,,0.00,WUHU216HW,2013-03-25 13:09:00,
2013-03-25 06:14:00,46.5,41.1,29.97,SSE,158,2.0,5.5,81,0.00,,,0.00,WUHU216HW,2013-03-25 13:14:00,
2013-03-25 06:19:00,46.5,41.1,29.97,SE,135,5.1,5.5,81,0.00,,,0.00,WUHU216HW,2013-03-25 13:19:00,
2013-03-25 06:24:00,46.5,41.1,29.97,SE,135,4.0,5.1,81,0.00,,,0.00,WUHU216HW,2013-03-25 13:24:00,
2013-03-25 06:29:00,46.5,41.1,29.97,ESE,113,3.5,5.1,81,0.00,,,0.00,WUHU216HW,2013-03-25 13:29:00,
2013-03-25 06:34:00,46.5,41.1,29.97,ESE,113,1.1,3.5,81,0.00,,,0.00,WUHU216HW,2013-03-25 13:34:00,
2013-03-25 06:39:00,46.5,41.1,29.98,South,180,0.0,3.5,81,0.00,,,0.00,WUHU216HW,2013-03-25 13:39:00,
2013-03-25 06:44:00,46.5,41.1,29.97,SE,135,4.4,4.4,81,0.00,,,0.00,WUHU216HW,2013-03-25 13:44:00,
2013-03-25 06:49:00,46.5,41.1,29.97,South,180,2.2,4.4,81,0.00,,,0.00,WUHU216HW,2013-03-25 13:49:00,
2013-03-25 06:54:00,46.5,41.1,29.97,SSE,158,0.0,4.4,81,0.00,,,0.00,WUHU216HW,2013-03-25 13:54:00,
2013-03-25 07:00:00,46.5,41.1,29.97,SSE,158,1.1,3.3,81,0.00,,,0.00,WUHU216HW,2013-03-25 14:00:00,
2013-03-25 07:05:00,46.5,41.1,29.98,South,180,3.5,3.8,81,0.00,,,0.00,WUHU216HW,2013-03-25 14:05:00,
2013-03-25 07:10:00,46.5,41.1,29.98,SSE,158,3.8,4.4,81,0.00,,,0.00,WUHU216HW,2013-03-25 14:10:00,
2013-03-25 07:15:00,46.4,40.9,29.98,SE,135,5.5,5.5,81,0.00,,,0.00,WUHU216HW,2013-03-25 14:15:00,
2013-03-25 07:20:00,46.4,40.9,29.97,SSE,158,4.6,6.4,81,0.00,,,0.00,WUHU216HW,2013-03-25 14:20:00,
2013-03-25 07:25:00,46.2,40.7,29.97,South,180,4.2,6.7,81,0.00,,,0.00,WUHU216HW,2013-03-25 14:25:00,
2013-03-25 07:30:00,46.2,40.7,29.97,ESE,113,3.8,6.7,81,0.00,,,0.00,WUHU216HW,2013-03-25 14:30:00,
2013-03-25 07:35:00,46.2,40.7,29.98,SE,135,5.1,6.7,81,0.00,,,0.00,WUHU216HW,2013-03-25 14:35:00,
2013-03-25 07:40:00,46.2,40.7,29.98,SE,135,6.0,6.7,81,0.00,,,0.00,WUHU216HW,2013-03-25 14:40:00,
2013-03-25 07:45:00,46.2,41.0,29.98,SE,135,5.3,6.2,82,0.00,,,0.00,WUHU216HW,2013-03-25 14:45:00,
2013-03-25 07:50:00,46.2,41.0,29.98,SSE,158,2.4,6.2,82,0.00,,,0.00,WUHU216HW,2013-03-25 14:50:00,
2013-03-25 07:55:00,46.2,41.0,29.98,SE,135,5.8,5.8,82,0.00,,,0.00,WUHU216HW,2013-03-25 14:55:00,
2013-03-25 08:00:00,46.5,41.4,29.98,SW,225,5.8,5.8,82,0.00,,,0.00,WUHU216HW,2013-03-25 15:00:00,
2013-03-25 08:05:00,46.5,41.4,29.98,SE,135,4.0,5.8,82,0.00,,,0.00,WUHU216HW,2013-03-25 15:05:00,
2013-03-25 08:10:00,46.7,41.5,29.98,SE,135,6.2,6.2,82,0.00,,,0.00,WUHU216HW,2013-03-25 15:10:00,
2013-03-25 08:16:00,46.7,41.5,29.98,SE,135,6.9,6.9,82,0.00,,,0.00,WUHU216HW,2013-03-25 15:16:00,
2013-03-25 08:20:00,46.9,41.7,29.98,SSE,158,5.5,6.9,82,0.00,,,0.00,WUHU216HW,2013-03-25 15:20:00,
2013-03-25 08:26:00,47.1,41.9,29.98,South,180,6.2,6.2,82,0.00,,,0.00,WUHU216HW,2013-03-25 15:26:00,
2013-03-25 08:31:00,47.1,41.9,29.98,SW,225,0.8,6.2,82,0.00,,,0.00,WUHU216HW,2013-03-25 15:31:00,
2013-03-25 08:36:00,47.1,41.9,29.98,SSE,158,5.1,11.4,82,0.00,,,0.00,WUHU216HW,2013-03-25 15:36:00,
2013-03-25 08:41:00,47.3,41.7,29.99,West,270,6.2,11.4,81,0.00,,,0.00,WUHU216HW,2013-03-25 15:41:00,
2013-03-25 08:46:00,47.3,41.7,29.99,SW,225,0.0,6.2,81,0.00,,,0.00,WUHU216HW,2013-03-25 15:46:00,
2013-03-25 08:51:00,47.4,41.9,29.99,SW,225,2.2,2.2,81,0.00,,,0.00,WUHU216HW,2013-03-25 15:51:00,
2013-03-25 08:56:00,47.4,41.9,29.99,SSE,158,2.4,4.6,81,0.00,,,0.00,WUHU216HW,2013-03-25 15:56:00,
2013-03-25 09:01:00,47.4,41.9,29.99,SE,135,3.3,8.7,81,0.00,,,0.00,WUHU216HW,2013-03-25 16:01:00,
2013-03-25 09:06:00,47.8,42.2,29.98,SSE,158,3.8,8.7,81,0.00,,,0.00,WUHU216HW,2013-03-25 16:06:00,
2013-03-25 09:12:00,47.8,42.2,29.99,SSE,158,6.4,6.4,81,0.00,,,0.00,WUHU216HW,2013-03-25 16:12:00,
2013-03-25 09:17:00,48.0,42.0,29.99,SW,225,4.6,6.4,80,0.00,,,0.00,WUHU216HW,2013-03-25 16:17:00,
2013-03-25 09:22:00,48.0,42.0,29.99,SSE,158,4.2,5.1,80,0.00,,,0.00,WUHU216HW,2013-03-25 16:22:00,
2013-03-25 09:27:00,48.0,42.0,29.99,SSE,158,3.3,4.6,80,0.00,,,0.00,WUHU216HW,2013-03-25 16:27:00,
2013-03-25 09:32:00,48.3,42.4,29.99,SSW,203,4.9,4.9,80,0.00,,,0.00,WUHU216HW,2013-03-25 16:32:00,
2013-03-25 09:37:00,48.3,42.4,29.99,WSW,248,5.3,5.3,80,0.00,,,0.00,WUHU216HW,2013-03-25 16:37:00,
2013-03-25 09:42:00,48.5,42.2,29.99,WSW,248,4.9,6.4,79,0.00,,,0.00,WUHU216HW,2013-03-25 16:42:00,
2013-03-25 09:47:00,48.5,42.2,29.99,South,180,2.4,11.8,79,0.00,,,0.00,WUHU216HW,2013-03-25 16:47:00,
2013-03-25 09:52:00,48.5,42.2,29.99,SSW,203,7.1,11.8,79,0.00,,,0.00,WUHU216HW,2013-03-25 16:52:00,
2013-03-25 09:58:00,48.7,42.4,29.99,SSE,158,3.3,7.1,79,0.00,,,0.00,WUHU216HW,2013-03-25 16:58:00,
2013-03-25 10:03:00,48.9,42.6,29.99,SSW,203,5.8,5.8,79,0.00,,,0.00,WUHU216HW,2013-03-25 17:03:00,
2013-03-25 10:08:00,49.2,42.6,30.00,WSW,248,4.2,5.8,78,0.00,,,0.00,WUHU216HW,2013-03-25 17:08:00,
2013-03-25 10:13:00,49.4,42.8,30.00,SSW,203,1.3,7.3,78,0.00,,,0.00,WUHU216HW,2013-03-25 17:13:00,
2013-03-25 10:18:00,49.6,43.0,30.00,WSW,248,10.0,10.0,78,0.00,,,0.00,WUHU216HW,2013-03-25 17:18:00,
2013-03-25 10:23:00,49.8,43.1,30.00,SE,135,4.9,10.0,78,0.00,,,0.00,WUHU216HW,2013-03-25 17:23:00,
2013-03-25 10:28:00,49.8,42.8,30.00,SSW,203,2.9,6.7,77,0.00,,,0.00,WUHU216HW,2013-03-25 17:28:00,
2013-03-25 10:33:00,50.1,43.2,30.00,West,270,0.0,6.7,77,0.00,,,0.00,WUHU216HW,2013-03-25 17:33:00,
2013-03-25 10:38:00,50.1,42.8,30.01,SSW,203,5.5,5.5,76,0.00,,,0.00,WUHU216HW,2013-03-25 17:38:00,
2013-03-25 10:43:00,50.1,42.8,30.01,SW,225,6.7,6.7,76,0.00,,,0.00,WUHU216HW,2013-03-25 17:43:00,
2013-03-25 10:48:00,50.3,43.0,30.01,SSE,158,6.0,6.7,76,0.00,,,0.00,WUHU216HW,2013-03-25 17:48:00,
2013-03-25 10:53:00,50.1,42.8,30.01,SW,225,10.0,10.0,76,0.00,,,0.00,WUHU216HW,2013-03-25 17:53:00,
2013-03-25 10:58:00,50.3,43.0,30.01,SE,135,2.2,10.0,76,0.00,,,0.00,WUHU216HW,2013-03-25 17:58:00,
2013-03-25 11:03:00,50.1,42.5,30.01,West,270,1.1,10.0,75,0.00,,,0.00,WUHU216HW,2013-03-25 18:03:00,
2013-03-25 11:08:00,50.3,42.7,30.01,South,180,2.6,8.5,75,0.00,,,0.00,WUHU216HW,2013-03-25 18:08:00,
2013-03-25 11:13:00,50.1,42.5,30.01,SW,225,10.0,10.0,75,0.00,,,0.00,WUHU216HW,2013-03-25 18:13:00,
2013-03-25 11:18:00,50.3,42.7,30.01,WSW,248,9.8,10.0,75,0.00,,,0.00,WUHU216HW,2013-03-25 18:18:00,
2013-03-25 11:24:00,50.5,42.5,30.01,SSW,203,3.5,9.8,74,0.00,,,0.00,WUHU216HW,2013-03-25 18:24:00,
2013-03-25 11:29:00,50.5,42.5,30.01,SSE,158,10.7,10.7,74,0.00,,,0.00,WUHU216HW,2013-03-25 18:29:00,
2013-03-25 11:34:00,50.9,42.9,30.01,SSW,203,5.1,10.7,74,0.00,,,0.00,WUHU216HW,2013-03-25 18:34:00,
2013-03-25 11:39:00,51.0,43.0,30.01,SSW,203,1.1,6.0,74,0.00,,,0.00,WUHU216HW,2013-03-25 18:39:00,
2013-03-25 11:44:00,51.0,42.7,30.01,SE,135,4.2,6.4,73,0.00,,,0.00,WUHU216HW,2013-03-25 18:44:00,
2013-03-25 11:49:00,51.2,42.9,30.01,SW,225,10.9,10.9,73,0.00,,,0.00,WUHU216HW,2013-03-25 18:49:00,
2013-03-25 11:54:00,51.4,43.1,30.01,SSW,203,7.6,10.9,73,0.00,,,0.00,WUHU216HW,2013-03-25 18:54:00,
2013-03-25 11:59:00,51.4,42.7,30.01,South,180,3.3,10.9,72,0.00,,,0.00,WUHU216HW,2013-03-25 18:59:00,
2013-03-25 12:04:00,51.0,42.4,30.01,South,180,4.2,7.3,72,0.00,,,0.00,WUHU216HW,2013-03-25 19:04:00,
2013-03-25 12:09:00,51.0,42.4,30.01,SW,225,5.1,8.5,72,0.00,,,0.00,WUHU216HW,2013-03-25 19:09:00,
2013-03-25 12:14:00,51.0,42.7,30.01,SE,135,9.3,10.7,73,0.00,,,0.00,WUHU216HW,2013-03-25 19:14:00,
2013-03-25 12:19:00,51.2,42.9,30.01,SSW,203,3.5,10.7,73,0.00,,,0.00,WUHU216HW,2013-03-25 19:19:00,
2013-03-25 12:24:00,51.4,43.1,30.01,SW,225,8.2,9.3,73,0.00,,,0.00,WUHU216HW,2013-03-25 19:24:00,
2013-03-25 12:30:00,51.6,43.2,30.00,SW,225,5.5,8.2,72,0.00,,,0.00,WUHU216HW,2013-03-25 19:30:00,
2013-03-25 12:35:00,51.9,43.6,30.00,SE,135,5.5,5.8,73,0.00,,,0.00,WUHU216HW,2013-03-25 19:35:00,
2013-03-25 12:40:00,52.3,43.6,30.01,SSW,203,5.3,6.7,72,0.00,,,0.00,WUHU216HW,2013-03-25 19:40:00,
2013-03-25 12:45:00,52.5,43.4,30.01,South,180,7.1,7.1,71,0.00,,,0.00,WUHU216HW,2013-03-25 19:45:00,
2013-03-25 12:50:00,52.8,43.7,30.01,SSE,158,8.0,8.0,71,0.00,,,0.00,WUHU216HW,2013-03-25 19:50:00,
2013-03-25 12:55:00,53.2,44.0,30.01,SW,225,0.0,8.0,71,0.00,,,0.00,WUHU216HW,2013-03-25 19:55:00,
2013-03-25 13:00:00,53.4,43.8,30.01,WSW,248,5.3,6.2,70,0.00,,,0.00,WUHU216HW,2013-03-25 20:00:00,
2013-03-25 13:05:00,53.4,43.8,30.01,WSW,248,10.9,10.9,70,0.00,,,0.00,WUHU216HW,2013-03-25 20:05:00,
2013-03-25 13:10:00,53.4,43.8,30.00,SSE,158,4.2,10.9,70,0.00,,,0.00,WUHU216HW,2013-03-25 20:10:00,
2013-03-25 13:15:00,53.7,44.2,30.00,SSE,158,5.1,8.0,70,0.00,,,0.00,WUHU216HW,2013-03-25 20:15:00,
2013-03-25 13:20:00,54.1,44.1,30.00,SE,135,5.1,5.1,69,0.00,,,0.00,WUHU216HW,2013-03-25 20:20:00,
2013-03-25 13:25:00,54.3,44.3,30.00,SE,135,4.4,6.0,69,0.00,,,0.00,WUHU216HW,2013-03-25 20:25:00,
2013-03-25 13:30:00,54.6,44.3,30.00,SE,135,5.8,6.0,68,0.00,,,0.00,WUHU216HW,2013-03-25 20:30:00,
2013-03-25 13:35:00,54.6,44.3,29.99,SE,135,2.6,5.8,68,0.00,,,0.00,WUHU216HW,2013-03-25 20:35:00,
2013-03-25 13:40:00,54.8,44.4,29.99,SSE,158,5.1,5.1,68,0.00,,,0.00,WUHU216HW,2013-03-25 20:40:00,
2013-03-25 13:45:00,55.4,45.0,29.99,SSW,203,4.6,5.1,68,0.00,,,0.00,WUHU216HW,2013-03-25 20:45:00,
2013-03-25 13:50:00,55.7,44.9,29.99,SW,225,4.4,5.1,67,0.00,,,0.00,WUHU216HW,2013-03-25 20:50:00,
2013-03-25 13:55:00,55.9,44.7,29.98,SE,135,2.9,5.5,66,0.00,,,0.00,WUHU216HW,2013-03-25 20:55:00,
2013-03-25 14:01:00,56.1,44.8,29.98,South,180,0.0,6.0,66,0.00,,,0.00,WUHU216HW,2013-03-25 21:01:00,
2013-03-25 14:06:00,56.4,45.2,29.98,South,180,6.0,6.0,66,0.00,,,0.00,WUHU216HW,2013-03-25 21:06:00,
2013-03-25 14:11:00,56.4,45.2,29.98,WSW,248,3.3,6.0,66,0.00,,,0.00,WUHU216HW,2013-03-25 21:11:00,
2013-03-25 14:16:00,56.6,44.9,29.98,ESE,113,3.3,5.8,65,0.00,,,0.00,WUHU216HW,2013-03-25 21:16:00,
2013-03-25 14:21:00,56.8,45.1,29.98,North,0,1.5,6.2,65,0.00,,,0.00,WUHU216HW,2013-03-25 21:21:00,
2013-03-25 14:26:00,56.8,45.1,29.98,SW,225,1.5,6.2,65,0.00,,,0.00,WUHU216HW,2013-03-25 21:26:00,
2013-03-25 14:32:00,56.8,45.1,29.98,SE,135,0.8,5.3,65,0.00,,,0.00,WUHU216HW,2013-03-25 21:32:00,
2013-03-25 14:37:00,57.0,45.3,29.98,SSW,203,0.0,5.3,65,0.00,,,0.00,WUHU216HW,2013-03-25 21:37:00,
2013-03-25 14:42:00,57.0,44.9,29.97,SSW,203,5.8,5.8,64,0.00,,,0.00,WUHU216HW,2013-03-25 21:42:00,
2013-03-25 14:47:00,57.0,44.9,29.97,WSW,248,5.8,6.0,64,0.00,,,0.00,WUHU216HW,2013-03-25 21:47:00,
2013-03-25 14:52:00,57.3,45.2,29.97,SSE,158,4.2,6.0,64,0.00,,,0.00,WUHU216HW,2013-03-25 21:52:00,
2013-03-25 14:57:00,57.3,44.8,29.97,SSW,203,1.1,5.8,63,0.00,,,0.00,WUHU216HW,2013-03-25 21:57:00,
2013-03-25 15:02:00,57.5,45.0,29.97,SW,225,4.2,6.2,63,0.00,,,0.00,WUHU216HW,2013-03-25 22:02:00,
2013-03-25 15:07:00,57.9,45.7,29.97,SW,225,0.0,6.2,64,0.00,,,0.00,WUHU216HW,2013-03-25 22:07:00,
2013-03-25 15:12:00,58.2,46.1,29.96,SW,225,0.0,1.5,64,0.00,,,0.00,WUHU216HW,2013-03-25 22:12:00,
2013-03-25 15:17:00,58.8,46.2,29.96,SW,225,9.8,9.8,63,0.00,,,0.00,WUHU216HW,2013-03-25 22:17:00,
2013-03-25 15:22:00,58.8,45.7,29.96,West,270,0.0,9.8,62,0.00,,,0.00,WUHU216HW,2013-03-25 22:22:00,
2013-03-25 15:27:00,58.6,45.6,29.96,SSW,203,3.1,9.8,62,0.00,,,0.00,WUHU216HW,2013-03-25 22:27:00,
2013-03-25 15:32:00,58.8,45.7,29.96,SSW,203,4.0,4.0,62,0.00,,,0.00,WUHU216HW,2013-03-25 22:32:00,
2013-03-25 15:37:00,58.8,45.7,29.96,West,270,0.0,4.0,62,0.00,,,0.00,WUHU216HW,2013-03-25 22:37:00,
2013-03-25 15:42:00,58.8,45.7,29.96,WSW,248,0.0,6.9,62,0.00,,,0.00,WUHU216HW,2013-03-25 22:42:00,
2013-03-25 15:47:00,58.8,45.7,29.96,WSW,248,1.3,6.9,62,0.00,,,0.00,WUHU216HW,2013-03-25 22:47:00,
2013-03-25 15:52:00,58.6,45.6,29.96,SSW,203,1.5,2.4,62,0.00,,,0.00,WUHU216HW,2013-03-25 22:52:00,
2013-03-25 15:58:00,58.2,45.3,29.96,SE,135,2.4,4.2,62,0.00,,,0.00,WUHU216HW,2013-03-25 22:58:00,
2013-03-25 16:03:00,58.2,45.3,29.96,SSW,203,10.0,10.0,62,0.00,,,0.00,WUHU216HW,2013-03-25 23:03:00,
2013-03-25 16:08:00,58.1,45.5,29.96,SW,225,8.7,10.0,63,0.00,,,0.00,WUHU216HW,2013-03-25 23:08:00,
2013-03-25 16:13:00,57.9,44.9,29.96,SW,225,3.8,8.7,62,0.00,,,0.00,WUHU216HW,2013-03-25 23:13:00,
2013-03-25 16:18:00,57.9,45.3,29.96,SSW,203,3.5,5.8,63,0.00,,,0.00,WUHU216HW,2013-03-25 23:18:00,
2013-03-25 16:23:00,57.9,44.9,29.96,SW,225,2.9,6.0,62,0.00,,,0.00,WUHU216HW,2013-03-25 23:23:00,
2013-03-25 16:28:00,57.7,44.7,29.96,SE,135,0.0,6.0,62,0.00,,,0.00,WUHU216HW,2013-03-25 23:28:00,
2013-03-25 16:33:00,57.9,44.9,29.96,SE,135,4.9,4.9,62,0.00,,,0.00,WUHU216HW,2013-03-25 23:33:00,
2013-03-25 16:38:00,57.9,44.5,29.96,SW,225,4.2,4.9,61,0.00,,,0.00,WUHU216HW,2013-03-25 23:38:00,
2013-03-25 16:43:00,57.9,44.9,29.95,SE,135,2.4,6.0,62,0.00,,,0.00,WUHU216HW,2013-03-25 23:43:00,
2013-03-25 16:48:00,57.9,44.9,29.95,SSE,158,3.8,6.0,62,0.00,,,0.00,WUHU216HW,2013-03-25 23:48:00,
2013-03-25 16:53:00,58.1,45.1,29.95,WSW,248,0.0,5.5,62,0.00,,,0.00,WUHU216HW,2013-03-25 23:53:00,
2013-03-25 16:58:00,58.1,45.1,29.95,SW,225,0.6,6.2,62,0.00,,,0.00,WUHU216HW,2013-03-25 23:58:00,
2013-03-25 17:03:00,57.9,44.9,29.95,WSW,248,4.2,6.2,62,0.00,,,0.00,WUHU216HW,2013-03-26 00:03:00,
2013-03-25 17:08:00,57.7,44.7,29.95,SSW,203,3.8,5.3,62,0.00,,,0.00,WUHU216HW,2013-03-26 00:08:00,
2013-03-25 17:13:00,57.3,44.4,29.95,South,180,1.7,4.2,62,0.00,,,0.00,WUHU216HW,2013-03-26 00:13:00,
2013-03-25 17:18:00,57.3,44.1,29.94,SE,135,6.2,6.2,62,0.00,,,0.00,WUHU216HW,2013-03-26 00:18:00,
2013-03-25 17:23:00,57.0,44.5,29.94,SSE,158,0.0,6.2,63,0.00,,,0.00,WUHU216HW,2013-03-26 00:23:00,
2013-03-25 17:28:00,57.0,44.5,29.94,SE,135,2.2,6.2,63,0.00,,,0.00,WUHU216HW,2013-03-26 00:28:00,
2013-03-25 17:34:00,57.0,44.5,29.95,SW,225,1.1,5.1,63,0.00,,,0.00,WUHU216HW,2013-03-26 00:34:00,
2013-03-25 17:39:00,57.0,44.5,29.94,SW,225,3.1,5.1,63,0.00,,,0.00,WUHU216HW,2013-03-26 00:39:00,
2013-03-25 17:44:00,56.8,44.3,29.95,SSE,158,3.8,4.6,63,0.00,,,0.00,WUHU216HW,2013-03-26 00:44:00,
2013-03-25 17:49:00,56.4,44.0,29.95,SSW,203,0.0,4.6,63,0.00,,,0.00,WUHU216HW,2013-03-26 00:49:00,
2013-03-25 17:54:00,56.4,44.4,29.95,SW,225,0.0,4.4,64,0.00,,,0.00,WUHU216HW,2013-03-26 00:54:00,
2013-03-25 17:59:00,56.4,44.4,29.95,SW,225,0.0,4.9,64,0.00,,,0.00,WUHU216HW,2013-03-26 00:59:00,
2013-03-25 18:04:00,56.4,44.4,29.95,South,180,1.5,5.3,64,0.00,,,0.00,WUHU216HW,2013-03-26 01:04:00,
2013-03-25 18:09:00,56.3,44.2,29.95,SW,225,2.2,5.3,64,0.00,,,0.00,WUHU216HW,2013-03-26 01:09:00,
2013-03-25 18:14:00,56.1,44.4,29.95,SW,225,0.0,6.7,65,0.00,,,0.00,WUHU216HW,2013-03-26 01:14:00,
2013-03-25 18:19:00,55.9,44.2,29.95,SSW,203,2.2,6.7,65,0.00,,,0.00,WUHU216HW,2013-03-26 01:19:00,
2013-03-25 18:24:00,55.5,43.9,29.95,SSE,158,3.1,3.1,65,0.00,,,0.00,WUHU216HW,2013-03-26 01:24:00,
2013-03-25 18:29:00,55.5,43.9,29.95,West,270,0.0,3.1,65,0.00,,,0.00,WUHU216HW,2013-03-26 01:29:00,
2013-03-25 18:34:00,55.5,43.9,29.95,SW,225,3.8,3.8,65,0.00,,,0.00,WUHU216HW,2013-03-26 01:34:00,
2013-03-25 18:39:00,55.4,43.7,29.95,SSW,203,4.0,4.0,65,0.00,,,0.00,WUHU216HW,2013-03-26 01:39:00,
2013-03-25 18:44:00,55.5,43.9,29.95,SSW,203,1.1,4.0,65,0.00,,,0.00,WUHU216HW,2013-03-26 01:44:00,
2013-03-25 18:49:00,55.5,43.9,29.95,SW,225,1.3,4.6,65,0.00,,,0.00,WUHU216HW,2013-03-26 01:49:00,
2013-03-25 18:55:00,55.5,43.9,29.95,SSW,203,2.9,4.6,65,0.00,,,0.00,WUHU216HW,2013-03-26 01:55:00,
2013-03-25 19:00:00,55.2,43.1,29.96,WSW,248,0.0,2.9,64,0.00,,,0.00,WUHU216HW,2013-03-26 02:00:00,
2013-03-25 19:05:00,55.2,43.6,29.95,SW,225,0.0,0.0,65,0.00,,,0.00,WUHU216HW,2013-03-26 02:05:00,
2013-03-25 19:10:00,55.2,43.6,29.95,SW,225,0.0,0.0,65,0.00,,,0.00,WUHU216HW,2013-03-26 02:10:00,
2013-03-25 19:15:00,55.2,43.6,29.96,SW,225,1.3,1.3,65,0.00,,,0.00,WUHU216HW,2013-03-26 02:15:00,
2013-03-25 19:20:00,55.2,43.6,29.96,SW,225,0.0,2.2,65,0.00,,,0.00,WUHU216HW,2013-03-26 02:20:00,
2013-03-25 19:25:00,55.0,43.4,29.96,WNW,293,0.0,2.2,65,0.00,,,0.00,WUHU216HW,2013-03-26 02:25:00,
2013-03-25 19:30:00,55.0,43.0,29.96,WNW,293,0.0,0.0,64,0.00,,,0.00,WUHU216HW,2013-03-26 02:30:00,
2013-03-25 19:35:00,54.6,42.6,29.96,WNW,293,0.0,0.0,64,0.00,,,0.00,WUHU216HW,2013-03-26 02:35:00,
2013-03-25 19:40:00,54.3,42.3,29.96,WNW,293,0.0,0.0,64,0.00,,,0.00,WUHU216HW,2013-03-26 02:40:00,
2013-03-25 19:45:00,54.3,42.3,29.96,NE,45,0.0,0.0,64,0.00,,,0.00,WUHU216HW,2013-03-26 02:45:00,
2013-03-25 19:50:00,54.1,42.0,29.96,WNW,293,0.0,0.6,64,0.00,,,0.00,WUHU216HW,2013-03-26 02:50:00,
2013-03-25 19:55:00,53.7,41.8,29.96,WSW,248,0.0,0.6,64,0.00,,,0.00,WUHU216HW,2013-03-26 02:55:00,
2013-03-25 20:01:00,53.7,41.8,29.96,WNW,293,0.0,0.0,64,0.00,,,0.00,WUHU216HW,2013-03-26 03:01:00,
2013-03-25 20:06:00,53.4,41.5,29.96,West,270,0.0,0.0,64,0.00,,,0.00,WUHU216HW,2013-03-26 03:06:00,
2013-03-25 20:11:00,53.4,41.9,29.96,NNW,338,0.0,0.0,65,0.00,,,0.00,WUHU216HW,2013-03-26 03:11:00,
2013-03-25 20:16:00,53.2,41.7,29.96,WNW,293,0.0,0.0,65,0.00,,,0.00,WUHU216HW,2013-03-26 03:16:00,
2013-03-25 20:21:00,52.8,41.3,29.95,WSW,248,0.0,0.0,65,0.00,,,0.00,WUHU216HW,2013-03-26 03:21:00,
2013-03-25 20:27:00,52.8,41.3,29.95,WSW,248,0.0,0.0,65,0.00,,,0.00,WUHU216HW,2013-03-26 03:27:00,
2013-03-25 20:32:00,52.8,41.3,29.94,West,270,0.0,0.0,65,0.00,,,0.00,WUHU216HW,2013-03-26 03:32:00,
2013-03-25 20:37:00,52.8,41.7,29.94,WNW,293,0.0,0.0,66,0.00,,,0.00,WUHU216HW,2013-03-26 03:37:00,
2013-03-25 20:42:00,52.7,41.6,29.93,WNW,293,0.0,0.0,66,0.00,,,0.00,WUHU216HW,2013-03-26 03:42:00,
2013-03-25 20:47:00,52.5,41.4,29.93,WNW,293,0.0,0.0,66,0.00,,,0.00,WUHU216HW,2013-03-26 03:47:00,
2013-03-25 20:52:00,52.5,41.4,29.93,West,270,0.0,0.0,66,0.00,,,0.00,WUHU216HW,2013-03-26 03:52:00,
2013-03-25 20:57:00,52.5,41.4,29.93,SSE,158,0.0,0.0,66,0.00,,,0.00,WUHU216HW,2013-03-26 03:57:00,
2013-03-25 21:00:00,52.5,41.4,29.92,NW,315,0.0,0.0,66,0.00,,,0.00,WUHU216HW,2013-03-26 04:00:00,
2013-03-25 21:05:00,52.5,41.4,29.95,SSW,203,3.5,3.5,66,0.00,,,0.00,WUHU216HW,2013-03-26 04:05:00,
2013-03-25 21:10:00,52.3,41.2,29.95,SW,225,0.0,3.5,66,0.00,,,0.00,WUHU216HW,2013-03-26 04:10:00,
2013-03-25 21:15:00,52.3,41.2,29.96,SW,225,2.2,3.5,66,0.00,,,0.00,WUHU216HW,2013-03-26 04:15:00,
2013-03-25 21:21:00,52.3,41.2,29.96,SW,225,0.0,2.2,66,0.00,,,0.00,WUHU216HW,2013-03-26 04:21:00,
2013-03-25 21:26:00,52.3,41.2,29.96,SSW,203,0.0,0.0,66,0.00,,,0.00,WUHU216HW,2013-03-26 04:26:00,
2013-03-25 21:31:00,52.3,41.2,29.96,SSW,203,0.0,0.0,66,0.00,,,0.00,WUHU216HW,2013-03-26 04:31:00,
2013-03-25 21:36:00,52.3,41.2,29.97,SSW,203,0.0,0.0,66,0.00,,,0.00,WUHU216HW,2013-03-26 04:36:00,
2013-03-25 21:41:00,52.1,41.1,29.97,SW,225,0.0,0.0,66,0.00,,,0.00,WUHU216HW,2013-03-26 04:41:00,
2013-03-25 21:46:00,51.9,40.9,29.97,SSW,203,4.2,4.2,66,0.00,,,0.00,WUHU216HW,2013-03-26 04:46:00,
2013-03-25 21:52:00,51.8,41.1,29.97,SSE,158,7.3,7.3,67,0.00,,,0.00,WUHU216HW,2013-03-26 04:52:00,
2013-03-25 21:57:00,51.6,41.4,29.97,SW,225,1.3,7.3,68,0.00,,,0.00,WUHU216HW,2013-03-26 04:57:00,
2013-03-25 22:02:00,51.2,41.4,29.97,SW,225,1.3,5.1,69,0.00,,,0.00,WUHU216HW,2013-03-26 05:02:00,
2013-03-25 22:07:00,50.9,41.1,29.97,West,270,5.5,7.8,69,0.00,,,0.00,WUHU216HW,2013-03-26 05:07:00,
2013-03-25 22:12:00,50.7,41.3,29.97,WNW,293,0.6,7.8,70,0.00,,,0.00,WUHU216HW,2013-03-26 05:12:00,
2013-03-25 22:17:00,50.5,41.1,29.97,SW,225,1.5,6.9,70,0.00,,,0.00,WUHU216HW,2013-03-26 05:17:00,
2013-03-25 22:22:00,50.5,41.5,29.98,SSW,203,4.4,4.4,71,0.00,,,0.00,WUHU216HW,2013-03-26 05:22:00,
2013-03-25 22:27:00,50.3,41.3,29.97,WNW,293,0.8,6.7,71,0.00,,,0.00,WUHU216HW,2013-03-26 05:27:00,
2013-03-25 22:33:00,50.3,41.3,29.97,SSW,203,2.0,6.7,71,0.00,,,0.00,WUHU216HW,2013-03-26 05:33:00,
2013-03-25 22:38:00,50.3,41.3,29.98,SW,225,9.1,9.1,71,0.00,,,0.00,WUHU216HW,2013-03-26 05:38:00,
2013-03-25 22:43:00,50.0,40.9,29.98,WNW,293,0.0,9.1,71,0.00,,,0.00,WUHU216HW,2013-03-26 05:43:00,
2013-03-25 22:48:00,49.8,40.8,29.98,SSE,158,3.1,3.5,71,0.00,,,0.00,WUHU216HW,2013-03-26 05:48:00,
2013-03-25 22:53:00,49.8,41.1,29.98,SSW,203,5.1,5.1,72,0.00,,,0.00,WUHU216HW,2013-03-26 05:53:00,
2013-03-25 22:58:00,49.8,41.1,29.99,SSW,203,3.8,5.1,72,0.00,,,0.00,WUHU216HW,2013-03-26 05:58:00,
2013-03-25 23:03:00,49.8,41.1,29.99,NW,315,1.3,5.1,72,0.00,,,0.00,WUHU216HW,2013-03-26 06:03:00,
2013-03-25 23:08:00,49.8,40.8,29.99,WNW,293,0.0,1.3,71,0.00,,,0.00,WUHU216HW,2013-03-26 06:08:00,
2013-03-25 23:13:00,49.8,40.8,29.98,WNW,293,0.0,1.3,71,0.00,,,0.00,WUHU216HW,2013-03-26 06:13:00,
2013-03-25 23:18:00,49.8,40.8,29.98,SW,225,0.0,0.0,71,0.00,,,0.00,WUHU216HW,2013-03-26 06:18:00,
2013-03-25 23:23:00,50.0,40.9,29.98,SW,225,0.0,0.0,71,0.00,,,0.00,WUHU216HW,2013-03-26 06:23:00,
2013-03-25 23:28:00,50.1,41.1,29.98,SW,225,0.0,0.0,71,0.00,,,0.00,WUHU216HW,2013-03-26 06:28:00,
2013-03-25 23:33:00,50.1,41.1,29.98,SW,225,0.0,0.0,71,0.00,,,0.00,WUHU216HW,2013-03-26 06:33:00,
2013-03-25 23:38:00,50.1,41.1,29.98,SW,225,0.0,0.0,71,0.00,,,0.00,WUHU216HW,2013-03-26 06:38:00,
2013-03-25 23:43:00,50.1,41.1,29.98,SSW,203,1.5,1.5,71,0.00,,,0.00,WUHU216HW,2013-03-26 06:43:00,
2013-03-25 23:49:00,50.1,41.1,29.98,SSW,203,0.0,2.9,71,0.00,,,0.00,WUHU216HW,2013-03-26 06:49:00,
2013-03-25 23:54:00,50.1,41.1,29.98,SSW,203,0.0,2.9,71,0.00,,,0.00,WUHU216HW,2013-03-26 06:54:00,
2013-03-25 23:59:00,50.1,41.1,29.98,SSW,203,0.0,0.0,71,0.00,,,0.00,WUHU216HW,2013-03-26 06:59:00,